Time,TemperatureF,DewpointF,PressureIn,WindDirection,WindDirectionDegrees,WindSpeedMPH,WindSpeedGustMPH,Humidity,HourlyPrecipIn,Conditions,Clouds,dailyrainin,SoftwareType,DateUTC
2013-09-18 00:14:00,57.0,49.0,30.19,East,90,1.0,3.0,74,0.00,,,0.00,,2013-09-18 04:14:00,
2013-09-18 00:24:00,56.0,48.0,30.19,ESE,103,1.0,3.0,75,0.00,,,0.00,,2013-09-18 04:24:00,
2013-09-18 00:54:00,56.0,50.0,30.18,East,101,2.0,5.0,79,0.00,,,0.00,,2013-09-18 04:54:00,
2013-09-18 01:13:00,56.0,50.0,30.17,East,96,3.0,6.0,80,0.00,,,0.00,,2013-09-18 05:13:00,
2013-09-18 01:23:00,55.0,49.0,30.17,East,82,1.0,3.0,81,0.00,,,0.00,,2013-09-18 05:23:00,
2013-09-18 01:43:00,55.0,50.0,30.16,ESE,112,2.0,4.0,82,0.00,,,0.00,,2013-09-18 05:43:00,
2013-09-18 01:53:00,55.0,50.0,30.16,ESE,103,2.0,5.0,82,0.00,,,0.00,,2013-09-18 05:53:00,
2013-09-18 02:12:00,56.0,50.0,30.16,East,93,2.0,3.0,81,0.00,,,0.00,,2013-09-18 06:12:00,
2013-09-18 02:22:00,56.0,50.0,30.16,ESE,118,1.0,5.0,80,0.00,,,0.00,,2013-09-18 06:22:00,
2013-09-18 02:52:00,55.0,49.0,30.15,ESE,115,2.0,3.0,81,0.00,,,0.00,,2013-09-18 06:52:00,
2013-09-18 03:12:00,55.0,49.0,30.15,ESE,107,1.0,3.0,81,0.00,,,0.00,,2013-09-18 07:12:00,
2013-09-18 03:22:00,55.0,50.0,30.15,ESE,104,2.0,4.0,82,0.00,,,0.00,,2013-09-18 07:22:00,
2013-09-18 03:52:00,56.0,50.0,30.14,SE,126,4.0,7.0,81,0.00,,,0.00,,2013-09-18 07:52:00,
2013-09-18 04:12:00,56.0,51.0,30.14,SE,135,4.0,6.0,82,0.00,,,0.00,,2013-09-18 08:12:00,
2013-09-18 04:23:00,56.0,51.0,30.14,SE,127,4.0,5.0,82,0.00,,,0.00,,2013-09-18 08:23:00,
2013-09-18 04:52:00,56.0,51.0,30.14,ESE,117,1.0,3.0,82,0.00,,,0.00,,2013-09-18 08:52:00,
2013-09-18 05:12:00,56.0,51.0,30.14,ESE,112,1.0,3.0,83,0.00,,,0.00,,2013-09-18 09:12:00,
2013-09-18 05:22:00,56.0,52.0,30.14,East,92,0.0,1.0,85,0.00,,,0.00,,2013-09-18 09:22:00,
2013-09-18 05:43:00,56.0,52.0,30.14,East,92,0.0,2.0,85,0.00,,,0.00,,2013-09-18 09:43:00,
2013-09-18 05:53:00,56.0,52.0,30.14,East,92,0.0,1.0,86,0.00,,,0.00,,2013-09-18 09:53:00,
2013-09-18 06:13:00,56.0,52.0,30.14,East,93,1.0,2.0,85,0.00,,,0.00,,2013-09-18 10:13:00,
2013-09-18 06:23:00,56.0,52.0,30.14,ESE,114,0.0,2.0,86,0.00,,,0.00,,2013-09-18 10:23:00,
2013-09-18 06:53:00,56.0,52.0,30.14,SSE,158,0.0,4.0,86,0.00,,,0.00,,2013-09-18 10:53:00,
2013-09-18 07:12:00,56.0,52.0,30.14,ESE,115,0.0,2.0,86,0.00,,,0.00,,2013-09-18 11:12:00,
2013-09-18 07:22:00,56.0,52.0,30.14,SE,138,0.0,2.0,86,0.00,,,0.00,,2013-09-18 11:22:00,
2013-09-18 07:52:00,55.0,52.0,30.14,East,101,0.0,2.0,89,0.00,,,0.00,,2013-09-18 11:52:00,
2013-09-18 08:12:00,55.0,52.0,30.14,East,92,1.0,5.0,89,0.00,,,0.00,,2013-09-18 12:12:00,
2013-09-18 08:22:00,54.0,51.0,30.14,East,89,0.0,1.0,90,0.00,,,0.00,,2013-09-18 12:22:00,
2013-09-18 08:42:00,54.0,51.0,30.14,ESE,105,1.0,3.0,90,0.00,,,0.00,,2013-09-18 12:42:00,
2013-09-18 08:52:00,55.0,52.0,30.14,ESE,118,0.0,3.0,90,0.00,,,0.00,,2013-09-18 12:52:00,
2013-09-18 09:11:00,58.0,54.0,30.15,ESE,115,3.0,6.0,88,0.00,,,0.00,,2013-09-18 13:11:00,